�������l�o���
Date,Time,MP-1(��Sv/h),MP-2(��Sv/h),MP-3(��Sv/h),MP-4(��Sv/h),MP-5(��Sv/h),MP-6(��Sv/h),MP-7(��Sv/h),MP-8(��Sv/h),����,����(m/s),���J
2024/02/03,00:00,0.513,0.781,0.486,0.983,0.699,0.312,0.557,0.523,���k��,2.3,��
2024/02/03,00:10,0.514,0.778,0.485,0.982,0.697,0.312,0.558,0.522,���k��,3.2,��
2024/02/03,00:20,0.514,0.780,0.485,0.981,0.697,0.312,0.557,0.524,��,3.1,��
2024/02/03,00:30,0.514,0.779,0.486,0.983,0.699,0.312,0.557,0.522,��,2.3,��
2024/02/03,00:40,0.514,0.783,0.485,0.983,0.698,0.312,0.557,0.523,���k��,2.3,��
2024/02/03,00:50,0.512,0.779,0.486,0.984,0.695,0.312,0.556,0.523,���k��,2.9,��
2024/02/03,01:00,0.513,0.779,0.485,0.983,0.696,0.312,0.558,0.523,���k��,2.6,��
2024/02/03,01:10,0.513,0.779,0.486,0.982,0.698,0.313,0.556,0.522,��,2.6,��
2024/02/03,01:20,0.513,0.781,0.485,0.981,0.697,0.312,0.557,0.523,��,2.8,��
2024/02/03,01:30,0.512,0.783,0.483,0.982,0.698,0.312,0.556,0.523,���k��,5.0,��
2024/02/03,01:40,0.514,0.780,0.484,0.980,0.696,0.313,0.556,0.522,��,4.6,��
2024/02/03,01:50,0.514,0.780,0.486,0.982,0.697,0.315,0.558,0.521,��,3.8,��
2024/02/03,02:00,0.514,0.780,0.486,0.984,0.696,0.312,0.556,0.521,�쐼,4.1,��
2024/02/03,02:10,0.514,0.779,0.484,0.981,0.695,0.311,0.557,0.522,�쐼,4.3,��
2024/02/03,02:20,0.513,0.783,0.485,0.983,0.696,0.313,0.557,0.522,�쐼,3.9,��
2024/02/03,02:30,0.513,0.779,0.485,0.982,0.697,0.311,0.557,0.523,���쐼,2.8,��
2024/02/03,02:40,0.512,0.779,0.485,0.980,0.698,0.313,0.557,0.523,���쐼,2.6,��
2024/02/03,02:50,0.514,0.780,0.485,0.982,0.698,0.313,0.558,0.523,���쐼,3.1,��
2024/02/03,03:00,0.512,0.780,0.485,0.984,0.697,0.311,0.558,0.523,���쐼,2.9,��
2024/02/03,03:10,0.513,0.780,0.485,0.984,0.696,0.313,0.556,0.523,�쐼,3.4,��
2024/02/03,03:20,0.514,0.778,0.486,0.981,0.696,0.313,0.556,0.522,�쐼,3.2,��
2024/02/03,03:30,0.513,0.781,0.485,0.983,0.696,0.312,0.557,0.523,�쐼,3.8,��
2024/02/03,03:40,0.513,0.779,0.486,0.983,0.697,0.312,0.557,0.522,�쐼,2.9,��
2024/02/03,03:50,0.514,0.780,0.484,0.983,0.697,0.313,0.557,0.519,�쐼,2.6,��
2024/02/03,04:00,0.513,0.780,0.485,0.981,0.697,0.313,0.558,0.522,�쐼,3.4,��
2024/02/03,04:10,0.511,0.780,0.486,0.984,0.698,0.312,0.558,0.524,�쐼,4.0,��
2024/02/03,04:20,0.513,0.779,0.485,0.982,0.697,0.312,0.559,0.523,���쐼,4.2,��
2024/02/03,04:30,0.512,0.780,0.485,0.986,0.696,0.313,0.557,0.522,�쐼,3.3,��
2024/02/03,04:40,0.512,0.780,0.485,0.981,0.696,0.313,0.559,0.522,���쐼,2.6,��
2024/02/03,04:50,0.513,0.778,0.486,0.984,0.696,0.312,0.557,0.522,���쐼,1.7,��
2024/02/03,05:00,0.514,0.781,0.484,0.983,0.695,0.312,0.557,0.521,��,2.0,��
2024/02/03,05:10,0.514,0.779,0.485,0.983,0.697,0.311,0.556,0.524,��,1.2,��
2024/02/03,05:20,0.512,0.780,0.485,0.983,0.695,0.313,0.557,0.523,���쐼,1.5,��
2024/02/03,05:30,0.513,0.781,0.486,0.984,0.696,0.311,0.556,0.521,�쐼,1.5,��
2024/02/03,05:40,0.512,0.777,0.486,0.984,0.696,0.313,0.557,0.522,��,2.9,��
2024/02/03,05:50,0.513,0.780,0.485,0.982,0.695,0.312,0.557,0.523,���쐼,2.5,��
2024/02/03,06:00,0.514,0.780,0.486,0.983,0.697,0.313,0.556,0.521,���쐼,3.4,��
2024/02/03,06:10,0.513,0.781,0.485,0.983,0.697,0.312,0.557,0.523,���쐼,3.5,��
2024/02/03,06:20,0.513,0.780,0.486,0.982,0.697,0.313,0.556,0.522,���쐼,3.5,��
2024/02/03,06:30,0.512,0.779,0.485,0.984,0.697,0.312,0.555,0.524,���쐼,4.1,��
2024/02/03,06:40,0.514,0.780,0.486,0.984,0.697,0.312,0.556,0.522,���쐼,4.3,��
2024/02/03,06:50,0.513,0.780,0.485,0.983,0.698,0.312,0.558,0.520,���쐼,4.1,��
2024/02/03,07:00,0.513,0.780,0.486,0.981,0.695,0.310,0.557,0.524,���쐼,4.2,��
2024/02/03,07:10,0.513,0.780,0.485,0.984,0.695,0.312,0.558,0.521,�쐼,3.9,��
2024/02/03,07:20,0.515,0.778,0.486,0.984,0.696,0.313,0.556,0.522,�쐼,4.1,��
2024/02/03,07:30,0.512,0.779,0.486,0.983,0.695,0.312,0.556,0.521,�쐼,3.4,��
2024/02/03,07:40,0.512,0.780,0.487,0.982,0.696,0.313,0.557,0.524,���쐼,3.2,��
2024/02/03,07:50,0.512,0.779,0.485,0.983,0.696,0.312,0.557,0.523,��,3.3,��
2024/02/03,08:00,0.515,0.781,0.486,0.983,0.697,0.312,0.557,0.522,���쐼,2.3,��
2024/02/03,08:10,0.512,0.780,0.485,0.983,0.697,0.312,0.557,0.523,��,3.1,��
2024/02/03,08:20,0.514,0.780,0.484,0.983,0.696,0.314,0.557,0.522,���쐼,2.8,��
2024/02/03,08:30,0.511,0.780,0.485,0.982,0.697,0.311,0.559,0.523,���쐼,2.5,��
2024/02/03,08:40,0.514,0.782,0.485,0.983,0.696,0.312,0.557,0.523,���쐼,2.5,��
2024/02/03,08:50,0.511,0.779,0.486,0.982,0.696,0.311,0.558,0.521,���쐼,2.5,��
2024/02/03,09:00,0.515,0.781,0.485,0.982,0.696,0.311,0.558,0.523,��,3.7,��
2024/02/03,09:10,0.515,0.781,0.486,0.982,0.698,0.313,0.558,0.522,��,5.6,��
2024/02/03,09:20,0.515,0.782,0.486,0.983,0.696,0.313,0.558,0.522,���k��,5.2,��
2024/02/03,09:30,0.514,0.781,0.487,0.982,0.698,0.313,0.559,0.522,���k��,5.6,��
2024/02/03,09:40,0.513,0.781,0.485,0.984,0.698,0.314,0.558,0.523,��,5.4,��
2024/02/03,09:50,0.513,0.782,0.485,0.981,0.697,0.312,0.558,0.523,���쐼,4.3,��
2024/02/03,10:00,0.513,0.781,0.485,0.982,0.699,0.312,0.558,0.523,���k��,3.0,��
2024/02/03,10:10,0.513,0.781,0.485,0.983,0.698,0.313,0.557,0.523,���k��,3.7,��
2024/02/03,10:20,0.515,0.781,0.486,0.984,0.699,0.313,0.557,0.524,�k��,3.5,��
2024/02/03,10:30,0.514,0.782,0.485,0.985,0.700,0.313,0.557,0.524,�k��,2.8,��
2024/02/03,10:40,0.516,0.781,0.486,0.983,0.700,0.312,0.557,0.523,�k��,2.0,��
2024/02/03,10:50,0.514,0.783,0.487,0.982,0.698,0.314,0.557,0.524,��,2.8,��
2024/02/03,11:00,0.515,0.783,0.487,0.984,0.698,0.313,0.555,0.523,���k��,2.0,��
2024/02/03,11:10,0.514,0.781,0.486,0.984,0.699,0.312,0.556,0.522,�k��,1.8,��
2024/02/03,11:20,0.515,0.780,0.485,0.984,0.699,0.313,0.556,0.522,���k��,3.6,��
2024/02/03,11:30,0.514,0.781,0.486,0.982,0.698,0.312,0.556,0.524,�k�k��,2.6,��
2024/02/03,11:40,0.512,0.779,0.487,0.985,0.701,0.313,0.557,0.524,�k�k��,4.8,��
2024/02/03,11:50,0.513,0.779,0.488,0.985,0.700,0.314,0.557,0.524,�k�k��,5.3,��
2024/02/03,12:00,0.514,0.778,0.487,0.983,0.700,0.312,0.556,0.524,�k�k��,3.5,��
2024/02/03,12:10,0.513,0.781,0.487,0.985,0.700,0.314,0.556,0.524,�k�k��,4.0,��
2024/02/03,12:20,0.515,0.780,0.488,0.983,0.701,0.313,0.558,0.523,�k��,3.3,��
2024/02/03,12:30,0.516,0.782,0.487,0.985,0.701,0.313,0.557,0.523,���k��,2.6,��
2024/02/03,12:40,0.515,0.783,0.487,0.985,0.700,0.314,0.557,0.524,��,3.8,��
2024/02/03,12:50,0.514,0.784,0.486,0.984,0.700,0.313,0.557,0.524,�k��,2.9,��
2024/02/03,13:00,0.515,0.783,0.489,0.981,0.698,0.313,0.558,0.523,�k��,3.3,��
2024/02/03,13:10,0.516,0.782,0.487,0.984,0.701,0.312,0.558,0.524,�k�k��,4.7,��
2024/02/03,13:20,0.515,0.782,0.488,0.986,0.702,0.313,0.558,0.524,�k�k��,3.9,��
2024/02/03,13:30,0.514,0.782,0.488,0.984,0.701,0.314,0.557,0.523,�k��,4.0,��
2024/02/03,13:40,0.514,0.783,0.488,0.985,0.701,0.313,0.558,0.524,�k��,4.7,��
2024/02/03,13:50,0.515,0.783,0.488,0.983,0.700,0.314,0.558,0.525,�k��,5.0,��
2024/02/03,14:00,0.514,0.782,0.488,0.986,0.701,0.314,0.558,0.524,�k�k��,4.0,��
2024/02/03,14:10,0.514,0.781,0.488,0.984,0.701,0.312,0.558,0.524,�k��,4.0,��
2024/02/03,14:20,0.517,0.783,0.488,0.984,0.701,0.312,0.557,0.523,���k��,4.0,��
2024/02/03,14:30,0.515,0.782,0.488,0.985,0.701,0.313,0.559,0.524,���k��,2.6,��
2024/02/03,14:40,0.515,0.784,0.489,0.985,0.700,0.314,0.559,0.526,�k��,2.2,��
2024/02/03,14:50,0.515,0.784,0.489,0.987,0.702,0.314,0.560,0.524,�k�k��,3.5,��
2024/02/03,15:00,0.516,0.784,0.488,0.985,0.700,0.314,0.559,0.523,�k��,3.5,��
2024/02/03,15:10,0.516,0.781,0.488,0.983,0.701,0.313,0.558,0.525,���k��,2.0,��
2024/02/03,15:20,0.514,0.782,0.487,0.986,0.700,0.313,0.559,0.524,��,3.9,��
2024/02/03,15:30,0.514,0.782,0.489,0.984,0.701,0.314,0.559,0.523,�k��,2.6,��
2024/02/03,15:40,0.515,0.782,0.489,0.983,0.699,0.315,0.559,0.524,��,2.8,��
2024/02/03,15:50,0.514,0.781,0.487,0.988,0.702,0.313,0.561,0.523,��,2.0,��
2024/02/03,16:00,0.516,0.784,0.486,0.985,0.701,0.313,0.561,0.526,�k��,3.3,��
2024/02/03,16:10,0.516,0.784,0.488,0.985,0.699,0.314,0.561,0.524,�k�k��,3.9,��
2024/02/03,16:20,0.516,0.782,0.488,0.984,0.701,0.314,0.559,0.524,��,3.2,��
2024/02/03,16:30,0.516,0.783,0.488,0.985,0.699,0.313,0.560,0.523,��,4.9,��
2024/02/03,16:40,0.515,0.785,0.489,0.985,0.701,0.311,0.560,0.523,��,4.0,��
2024/02/03,16:50,0.516,0.783,0.487,0.985,0.700,0.313,0.560,0.524,��,4.6,��
2024/02/03,17:00,0.514,0.782,0.486,0.983,0.700,0.314,0.560,0.524,��,5.0,��
2024/02/03,17:10,0.514,0.780,0.486,0.986,0.699,0.313,0.559,0.524,��,5.1,��
2024/02/03,17:20,0.513,0.782,0.486,0.985,0.699,0.314,0.560,0.524,���쐼,3.9,��
2024/02/03,17:30,0.515,0.783,0.484,0.984,0.699,0.312,0.560,0.524,��,5.5,��
2024/02/03,17:40,0.514,0.781,0.486,0.985,0.699,0.313,0.560,0.522,��,5.1,��
2024/02/03,17:50,0.513,0.781,0.486,0.985,0.701,0.313,0.560,0.523,��,4.6,��
2024/02/03,18:00,0.514,0.783,0.487,0.985,0.700,0.314,0.559,0.522,��,3.2,��
2024/02/03,18:10,0.513,0.783,0.488,0.985,0.701,0.313,0.560,0.522,��,4.2,��
2024/02/03,18:20,0.514,0.781,0.486,0.985,0.701,0.313,0.559,0.524,��,4.7,��
2024/02/03,18:30,0.512,0.781,0.487,0.984,0.700,0.315,0.558,0.522,��,5.1,��
2024/02/03,18:40,0.515,0.783,0.486,0.985,0.703,0.312,0.559,0.524,��,4.4,��
2024/02/03,18:50,0.514,0.782,0.486,0.985,0.699,0.313,0.560,0.524,��,4.3,��
2024/02/03,19:00,0.515,0.781,0.486,0.985,0.700,0.314,0.558,0.523,��,4.0,��
2024/02/03,19:10,0.516,0.780,0.487,0.986,0.698,0.314,0.558,0.523,��,2.6,��
2024/02/03,19:20,0.514,0.780,0.487,0.984,0.701,0.312,0.560,0.523,���k��,1.1,��
2024/02/03,19:30,0.515,0.782,0.488,0.983,0.699,0.313,0.559,0.524,���쐼,2.5,��
2024/02/03,19:40,0.514,0.783,0.487,0.984,0.699,0.313,0.559,0.523,�k��,2.0,��
2024/02/03,19:50,0.514,0.782,0.487,0.984,0.700,0.313,0.559,0.524,���k��,3.1,��
2024/02/03,20:00,0.514,0.783,0.486,0.984,0.698,0.312,0.559,0.523,�k��,2.6,��
2024/02/03,20:10,0.514,0.782,0.486,0.985,0.699,0.312,0.559,0.523,���k��,3.7,��
2024/02/03,20:20,0.513,0.779,0.486,0.986,0.700,0.313,0.559,0.522,�k��,3.4,��
2024/02/03,20:30,0.515,0.781,0.486,0.986,0.700,0.311,0.558,0.523,�k��,2.9,��
2024/02/03,20:40,0.512,0.781,0.487,0.984,0.699,0.312,0.559,0.523,�k��,2.6,��
2024/02/03,20:50,0.515,0.778,0.486,0.984,0.699,0.313,0.558,0.522,�k��,4.4,��
2024/02/03,21:00,0.513,0.780,0.486,0.985,0.700,0.313,0.558,0.523,�k��,5.0,��
2024/02/03,21:10,0.514,0.781,0.486,0.983,0.700,0.312,0.558,0.523,�k��,4.4,��
2024/02/03,21:20,0.513,0.781,0.486,0.983,0.700,0.312,0.557,0.522,�k��,3.9,��
2024/02/03,21:30,0.512,0.782,0.487,0.987,0.699,0.311,0.558,0.522,�k��,4.1,��
2024/02/03,21:40,0.514,0.783,0.487,0.982,0.699,0.313,0.558,0.523,�k��,3.5,��
2024/02/03,21:50,0.514,0.781,0.486,0.983,0.700,0.312,0.559,0.523,�k�k��,3.4,��
2024/02/03,22:00,0.513,0.782,0.486,0.984,0.700,0.313,0.558,0.523,�k�k��,4.5,��
2024/02/03,22:10,0.514,0.783,0.487,0.984,0.699,0.311,0.558,0.524,�k�k��,4.6,��
2024/02/03,22:20,0.515,0.780,0.486,0.985,0.700,0.312,0.558,0.524,�k�k��,4.3,��
2024/02/03,22:30,0.514,0.782,0.487,0.985,0.699,0.313,0.559,0.523,�k,4.1,��
2024/02/03,22:40,0.513,0.780,0.488,0.984,0.700,0.313,0.558,0.523,�k�k��,3.7,��
2024/02/03,22:50,0.514,0.781,0.485,0.983,0.699,0.311,0.559,0.524,�k�k��,4.3,��
2024/02/03,23:00,0.514,0.780,0.485,0.985,0.699,0.313,0.557,0.521,�k�k��,4.2,��
2024/02/03,23:10,0.514,0.780,0.486,0.982,0.698,0.314,0.559,0.523,�k�k��,4.1,��
2024/02/03,23:20,0.513,0.780,0.486,0.985,0.699,0.313,0.560,0.522,�k�k��,3.1,��
2024/02/03,23:30,0.514,0.780,0.485,0.986,0.698,0.311,0.558,0.523,�k�k��,2.6,��
2024/02/03,23:40,0.515,0.782,0.487,0.982,0.699,0.313,0.557,0.522,�k�k��,2.8,��
2024/02/03,23:50,0.515,0.781,0.487,0.985,0.700,0.311,0.558,0.523,�k�k��,3.2,��
